�������l�o���
Date,Time,MP-1(��Sv/h),MP-2(��Sv/h),MP-3(��Sv/h),MP-4(��Sv/h),MP-5(��Sv/h),MP-6(��Sv/h),MP-7(��Sv/h),MP-8(��Sv/h),����,����(m/s),���J
2018/03/09,00:00,0.827,1.370,0.859,1.591,1.081,0.471,0.833,0.803,��쓌,12.5,��
2018/03/09,00:10,0.829,1.372,0.862,1.596,1.078,0.471,0.833,0.804,��쓌,16.6,�L
2018/03/09,00:20,0.828,1.370,0.865,1.596,1.081,0.471,0.834,0.801,��,15.3,�L
2018/03/09,00:30,0.828,1.372,0.861,1.597,1.081,0.471,0.834,0.803,��,15.2,��
2018/03/09,00:40,0.831,1.374,0.865,1.597,1.082,0.473,0.833,0.805,��쓌,16.1,�L
2018/03/09,00:50,0.830,1.371,0.864,1.600,1.083,0.472,0.836,0.803,��쓌,16.9,�L
2018/03/09,01:00,0.830,1.372,0.861,1.599,1.082,0.473,0.836,0.804,��쓌,15.8,�L
2018/03/09,01:10,0.831,1.375,0.863,1.597,1.079,0.473,0.835,0.805,��,16.9,�L
2018/03/09,01:20,0.832,1.374,0.865,1.599,1.081,0.472,0.834,0.805,��,16.8,�L
2018/03/09,01:30,0.832,1.376,0.865,1.602,1.081,0.474,0.836,0.804,��,14.1,�L
2018/03/09,01:40,0.830,1.372,0.864,1.600,1.079,0.472,0.836,0.803,��,15.3,�L
2018/03/09,01:50,0.829,1.369,0.864,1.598,1.077,0.474,0.833,0.803,��쓌,15.7,�L
2018/03/09,02:00,0.827,1.362,0.862,1.594,1.070,0.472,0.832,0.802,��쓌,15.8,�L
2018/03/09,02:10,0.823,1.357,0.857,1.588,1.067,0.473,0.830,0.799,��쓌,13.5,�L
2018/03/09,02:20,0.820,1.353,0.855,1.586,1.064,0.470,0.829,0.798,��쓌,15.5,�L
2018/03/09,02:30,0.820,1.350,0.854,1.587,1.064,0.471,0.831,0.798,��쓌,15.3,�L
2018/03/09,02:40,0.821,1.353,0.858,1.584,1.063,0.472,0.829,0.795,��쓌,13.9,�L
2018/03/09,02:50,0.821,1.353,0.857,1.583,1.062,0.471,0.831,0.798,��,12.4,�L
2018/03/09,03:00,0.823,1.352,0.857,1.579,1.063,0.472,0.827,0.797,��,15.2,�L
2018/03/09,03:10,0.820,1.351,0.855,1.580,1.059,0.472,0.827,0.797,��쓌,14.7,�L
2018/03/09,03:20,0.819,1.348,0.853,1.576,1.055,0.471,0.828,0.799,��쓌,14.6,�L
2018/03/09,03:30,0.818,1.344,0.852,1.571,1.052,0.469,0.826,0.796,��쓌,12.4,�L
2018/03/09,03:40,0.813,1.335,0.846,1.566,1.043,0.470,0.822,0.796,��,11.8,�L
2018/03/09,03:50,0.810,1.330,0.843,1.559,1.044,0.469,0.822,0.793,��,12.7,�L
2018/03/09,04:00,0.814,1.337,0.846,1.565,1.045,0.469,0.823,0.792,��,10.8,�L
2018/03/09,04:10,0.813,1.331,0.843,1.560,1.039,0.468,0.823,0.794,��,11.0,�L
2018/03/09,04:20,0.805,1.322,0.836,1.551,1.029,0.465,0.821,0.791,��쓌,15.2,�L
2018/03/09,04:30,0.805,1.319,0.835,1.547,1.023,0.465,0.819,0.790,��,10.3,�L
2018/03/09,04:40,0.801,1.310,0.828,1.536,1.014,0.459,0.815,0.788,��,10.2,�L
2018/03/09,04:50,0.801,1.310,0.826,1.539,1.014,0.458,0.817,0.788,��,9.6,�L
2018/03/09,05:00,0.807,1.319,0.828,1.541,1.014,0.462,0.817,0.789,��쓌,10.2,�L
2018/03/09,05:10,0.807,1.322,0.828,1.542,1.016,0.465,0.818,0.789,��,14.2,�L
2018/03/09,05:20,0.809,1.319,0.828,1.539,1.014,0.464,0.817,0.788,-,CALM,�L
2018/03/09,05:30,0.807,1.319,0.825,1.544,1.012,0.467,0.817,0.788,��,11.0,�L
2018/03/09,05:40,0.807,1.320,0.823,1.540,1.008,0.466,0.816,0.787,��쓌,11.4,�L
2018/03/09,05:50,0.810,1.321,0.823,1.540,1.010,0.469,0.817,0.789,��쓌,13.0,�L
2018/03/09,06:00,0.810,1.324,0.820,1.541,1.006,0.468,0.817,0.789,��,13.0,�L
2018/03/09,06:10,0.808,1.320,0.818,1.537,1.003,0.469,0.816,0.788,��쓌,11.3,�L
2018/03/09,06:20,0.806,1.312,0.813,1.534,0.996,0.465,0.815,0.787,��쓌,11.0,�L
2018/03/09,06:30,0.807,1.317,0.811,1.538,0.995,0.467,0.815,0.788,��쓌,12.4,�L
2018/03/09,06:40,0.809,1.316,0.811,1.540,0.989,0.465,0.815,0.787,-,CALM,�L
2018/03/09,06:50,0.809,1.317,0.811,1.537,0.995,0.466,0.815,0.787,��쓌,11.4,�L
2018/03/09,07:00,0.810,1.318,0.810,1.538,0.991,0.468,0.816,0.788,��쓌,14.4,�L
2018/03/09,07:10,0.810,1.320,0.809,1.538,0.989,0.467,0.817,0.787,��,16.1,�L
2018/03/09,07:20,0.814,1.330,0.815,1.547,0.994,0.469,0.818,0.790,��,11.1,�L
2018/03/09,07:30,0.815,1.329,0.817,1.548,0.995,0.470,0.819,0.792,��,12.5,�L
2018/03/09,07:40,0.811,1.320,0.815,1.542,0.986,0.469,0.818,0.789,��,15.0,�L
2018/03/09,07:50,0.796,1.294,0.800,1.519,0.970,0.461,0.811,0.783,-,CALM,�L
2018/03/09,08:00,0.793,1.295,0.786,1.514,0.965,0.445,0.808,0.781,-,CALM,�L
2018/03/09,08:10,0.793,1.295,0.776,1.514,0.962,0.441,0.806,0.780,-,CALM,�L
2018/03/09,08:20,0.780,1.274,0.754,1.493,0.939,0.404,0.802,0.776,��,15.3,�L
2018/03/09,08:30,0.797,1.294,0.762,1.513,0.950,0.420,0.805,0.782,���쐼,7.2,�L
2018/03/09,08:40,0.797,1.303,0.777,1.519,0.955,0.432,0.807,0.784,�쐼,2.8,�L
2018/03/09,08:50,0.802,1.312,0.785,1.530,0.960,0.442,0.807,0.783,��,7.1,�L
2018/03/09,09:00,0.807,1.320,0.793,1.537,0.967,0.452,0.808,0.786,�쐼,4.8,�L
2018/03/09,09:10,0.811,1.328,0.797,1.543,0.976,0.457,0.812,0.789,���쐼,3.9,�L
2018/03/09,09:20,0.811,1.335,0.801,1.554,0.982,0.459,0.811,0.790,��,3.9,�L
2018/03/09,09:30,0.813,1.339,0.808,1.556,0.984,0.462,0.814,0.792,���쐼,3.3,�L
2018/03/09,09:40,0.812,1.342,0.810,1.559,0.988,0.464,0.816,0.793,���쐼,2.9,�L
2018/03/09,09:50,0.816,1.342,0.813,1.567,0.992,0.465,0.815,0.794,��,3.3,�L
2018/03/09,10:00,0.815,1.344,0.816,1.565,0.995,0.463,0.816,0.793,���k��,4.0,�L
2018/03/09,10:10,0.815,1.343,0.818,1.567,0.998,0.463,0.816,0.792,��,4.5,�L
2018/03/09,10:20,0.814,1.343,0.822,1.566,1.002,0.465,0.813,0.791,�k��,3.9,�L
2018/03/09,10:30,0.814,1.345,0.826,1.569,1.003,0.466,0.816,0.793,�k��,5.0,�L
2018/03/09,10:40,0.816,1.344,0.830,1.570,1.007,0.465,0.816,0.795,�k��,5.3,�L
2018/03/09,10:50,0.812,1.343,0.830,1.569,1.007,0.467,0.815,0.795,���k��,3.6,�L
2018/03/09,11:00,0.806,1.325,0.823,1.556,0.994,0.465,0.812,0.792,�k��,7.1,�L
2018/03/09,11:10,0.803,1.323,0.822,1.546,0.994,0.466,0.808,0.791,�k��,6.2,�L
2018/03/09,11:20,0.806,1.323,0.822,1.547,0.997,0.466,0.808,0.788,�k��,5.4,�L
2018/03/09,11:30,0.806,1.323,0.824,1.553,1.001,0.467,0.811,0.790,�k��,5.7,�L
2018/03/09,11:40,0.809,1.330,0.826,1.555,1.002,0.468,0.813,0.789,�k��,6.4,�L
2018/03/09,11:50,0.812,1.331,0.827,1.559,1.006,0.469,0.811,0.789,�k��,7.1,�L
2018/03/09,12:00,0.813,1.337,0.831,1.561,1.007,0.470,0.814,0.792,�k��,5.4,�L
2018/03/09,12:10,0.814,1.340,0.833,1.565,1.010,0.470,0.814,0.793,�k��,4.8,�L
2018/03/09,12:20,0.815,1.338,0.833,1.567,1.011,0.471,0.812,0.793,�k�k��,6.0,�L
2018/03/09,12:30,0.814,1.338,0.834,1.566,1.009,0.470,0.815,0.793,�k��,8.7,�L
2018/03/09,12:40,0.813,1.339,0.835,1.567,1.012,0.469,0.814,0.792,�k��,9.2,�L
2018/03/09,12:50,0.816,1.342,0.836,1.569,1.014,0.470,0.814,0.793,�k��,10.2,�L
2018/03/09,13:00,0.815,1.342,0.839,1.571,1.017,0.470,0.818,0.794,�k��,10.7,�L
2018/03/09,13:10,0.815,1.342,0.837,1.573,1.017,0.469,0.818,0.795,�k��,8.7,�L
2018/03/09,13:20,0.816,1.338,0.838,1.573,1.015,0.470,0.818,0.796,�k��,9.7,�L
2018/03/09,13:30,0.818,1.342,0.840,1.574,1.019,0.471,0.819,0.794,�k��,8.3,�L
2018/03/09,13:40,0.816,1.344,0.839,1.575,1.018,0.470,0.819,0.795,���k��,6.5,�L
2018/03/09,13:50,0.815,1.343,0.838,1.575,1.018,0.471,0.820,0.794,���k��,5.9,�L
2018/03/09,14:00,0.813,1.342,0.839,1.575,1.019,0.471,0.819,0.796,���k��,5.5,�L
2018/03/09,14:10,0.817,1.344,0.838,1.580,1.019,0.470,0.818,0.796,���k��,6.1,�L
2018/03/09,14:20,0.814,1.345,0.838,1.578,1.019,0.470,0.820,0.796,���k��,5.7,�L
2018/03/09,14:30,0.815,1.344,0.839,1.574,1.020,0.470,0.821,0.796,�k��,4.6,�L
2018/03/09,14:40,0.816,1.341,0.840,1.574,1.020,0.472,0.820,0.795,�k��,4.0,�L
2018/03/09,14:50,0.816,1.336,0.840,1.576,1.020,0.471,0.818,0.797,���k��,3.3,�L
2018/03/09,15:00,0.815,1.339,0.839,1.573,1.016,0.475,0.820,0.795,�k��,4.2,�L
2018/03/09,15:10,0.815,1.336,0.838,1.572,1.018,0.474,0.818,0.797,�k�k��,4.3,�L
2018/03/09,15:20,0.815,1.336,0.842,1.573,1.018,0.475,0.818,0.794,�k�k��,7.2,�L
2018/03/09,15:30,0.816,1.340,0.841,1.571,1.020,0.473,0.820,0.795,�k�k��,9.0,�L
2018/03/09,15:40,0.815,1.341,0.841,1.575,1.023,0.471,0.819,0.796,�k�k��,8.9,�L
2018/03/09,15:50,0.816,1.342,0.839,1.575,1.024,0.469,0.819,0.795,�k��,9.9,�L
2018/03/09,16:00,0.814,1.345,0.840,1.575,1.025,0.472,0.821,0.796,�k�k��,9.0,�L
2018/03/09,16:10,0.812,1.345,0.841,1.577,1.022,0.471,0.818,0.797,�k��,9.1,�L
2018/03/09,16:20,0.815,1.345,0.840,1.578,1.021,0.473,0.820,0.796,�k��,8.2,�L
2018/03/09,16:30,0.812,1.343,0.842,1.573,1.022,0.472,0.820,0.794,�k�k��,7.6,�L
2018/03/09,16:40,0.815,1.344,0.841,1.575,1.024,0.471,0.820,0.797,�k�k��,7.4,�L
2018/03/09,16:50,0.813,1.342,0.839,1.578,1.023,0.471,0.820,0.794,�k�k��,7.0,�L
2018/03/09,17:00,0.815,1.341,0.839,1.578,1.023,0.471,0.822,0.795,�k�k��,7.0,�L
2018/03/09,17:10,0.814,1.343,0.838,1.579,1.025,0.471,0.822,0.797,�k�k��,7.3,�L
2018/03/09,17:20,0.814,1.345,0.840,1.581,1.026,0.468,0.822,0.797,�k�k��,5.9,��
2018/03/09,17:30,0.814,1.346,0.841,1.579,1.024,0.468,0.822,0.796,�k�k��,5.8,�L
2018/03/09,17:40,0.814,1.345,0.840,1.581,1.024,0.467,0.823,0.796,�k�k��,6.4,�L
2018/03/09,17:50,0.814,1.347,0.840,1.582,1.026,0.466,0.823,0.794,�k�k��,6.0,�L
2018/03/09,18:00,0.813,1.349,0.839,1.578,1.026,0.468,0.822,0.795,�k�k��,6.9,�L
2018/03/09,18:10,0.813,1.346,0.840,1.579,1.026,0.467,0.824,0.797,�k�k��,8.0,�L
2018/03/09,18:20,0.814,1.347,0.841,1.582,1.028,0.465,0.823,0.796,�k�k��,8.3,�L
2018/03/09,18:30,0.814,1.350,0.840,1.585,1.028,0.466,0.822,0.797,�k�k��,7.8,��
2018/03/09,18:40,0.814,1.349,0.841,1.582,1.029,0.465,0.824,0.797,�k�k��,7.0,��
2018/03/09,18:50,0.814,1.348,0.840,1.585,1.029,0.468,0.824,0.797,�k�k��,7.3,��
2018/03/09,19:00,0.814,1.350,0.843,1.582,1.030,0.467,0.824,0.797,�k,8.7,��
2018/03/09,19:10,0.816,1.349,0.843,1.583,1.030,0.467,0.825,0.799,�k�k��,8.6,��
2018/03/09,19:20,0.813,1.355,0.842,1.586,1.031,0.466,0.824,0.798,�k,8.0,��
2018/03/09,19:30,0.816,1.352,0.841,1.587,1.032,0.466,0.824,0.799,�k,8.4,��
2018/03/09,19:40,0.815,1.352,0.841,1.587,1.034,0.466,0.826,0.797,�k,8.3,��
2018/03/09,19:50,0.816,1.354,0.843,1.589,1.035,0.466,0.826,0.798,�k,9.6,��
2018/03/09,20:00,0.817,1.354,0.844,1.588,1.034,0.468,0.824,0.800,�k,9.9,��
2018/03/09,20:10,0.815,1.357,0.844,1.587,1.036,0.467,0.825,0.799,�k,9.2,��
2018/03/09,20:20,0.817,1.356,0.843,1.591,1.035,0.467,0.824,0.798,�k,9.0,��
2018/03/09,20:30,0.816,1.356,0.846,1.591,1.036,0.467,0.827,0.799,�k�k��,10.7,��
2018/03/09,20:40,0.816,1.359,0.843,1.589,1.040,0.466,0.825,0.798,�k,8.8,��
2018/03/09,20:50,0.817,1.359,0.845,1.594,1.039,0.467,0.826,0.799,�k,9.5,��
2018/03/09,21:00,0.817,1.359,0.844,1.591,1.038,0.467,0.826,0.800,�k,10.6,��
2018/03/09,21:10,0.816,1.359,0.844,1.591,1.036,0.468,0.825,0.801,�k,9.8,��
2018/03/09,21:20,0.817,1.360,0.844,1.593,1.041,0.467,0.827,0.800,�k,12.4,��
2018/03/09,21:30,0.817,1.358,0.848,1.595,1.042,0.467,0.826,0.799,�k,10.7,��
2018/03/09,21:40,0.817,1.358,0.847,1.593,1.040,0.468,0.827,0.799,�k,11.7,��
2018/03/09,21:50,0.816,1.363,0.848,1.593,1.041,0.468,0.826,0.799,�k,10.5,��
2018/03/09,22:00,0.817,1.361,0.846,1.593,1.037,0.466,0.827,0.801,�k,10.9,��
2018/03/09,22:10,0.816,1.361,0.847,1.596,1.042,0.468,0.826,0.800,�k,8.8,��
2018/03/09,22:20,0.818,1.363,0.847,1.595,1.043,0.468,0.825,0.800,�k,9.9,�L
2018/03/09,22:30,0.818,1.363,0.848,1.596,1.043,0.469,0.827,0.801,�k,9.0,�L
2018/03/09,22:40,0.818,1.362,0.848,1.595,1.045,0.469,0.829,0.800,�k,9.1,�L
2018/03/09,22:50,0.817,1.363,0.850,1.598,1.045,0.468,0.826,0.803,�k,10.2,�L
2018/03/09,23:00,0.820,1.363,0.849,1.597,1.044,0.470,0.829,0.802,�k,9.3,�L
2018/03/09,23:10,0.819,1.365,0.848,1.598,1.047,0.470,0.827,0.801,�k,10.2,�L
2018/03/09,23:20,0.819,1.367,0.850,1.597,1.046,0.469,0.828,0.801,�k,10.6,�L
2018/03/09,23:30,0.818,1.367,0.849,1.597,1.045,0.470,0.831,0.802,�k,11.1,�L
2018/03/09,23:40,0.818,1.367,0.849,1.600,1.047,0.470,0.831,0.802,�k,8.6,�L
2018/03/09,23:50,0.818,1.364,0.849,1.599,1.048,0.470,0.831,0.802,�k,8.8,�L
